Weather in Dobropillia

Ukraine / Donetsk Region     48˚28′07″N   37˚04′58″E
temp.,
°C
wind,
m/s
gust,
m/s
humid.,
%
clouds,
%
prec.,
mm/h
press.,
hPa
HPBL,
m
29 november, sun
sun2923:00+6˚sse61073100 0.0 1022374
02:00+4˚se6972100 0.0 1022279
05:00+3˚se587487 0.0 1022270
08:00+2˚se5108766 0.0 1022306
11:00+4˚se697897 0.0 1023369
14:00+5˚se588099 0.0 1023365
17:00+4˚se5991100 0.0 1024299
20:00+4˚se51292100 0.0 1024372
30 november, mon
mon3023:00+4˚se51293100 0.0 1024419
02:00+4˚se61092100 0.0 1025419
05:00+4˚se61092100 0.0 1024477
08:00+5˚se61088100 0.0 1025584
11:00+5˚ese71078100 0.0 1025657
14:00+5˚ese61069100 0.0 1024760
17:00+5˚ese61071100 0.0 1024790
20:00+6˚se6972100 0.0 1024821
1 december, tue
tue123:00+5˚ese6973100 0.0 1025607
02:00+4˚e61075100 0.0 1025757
05:00+1˚e61176100 0.0 1025600
08:00+1˚e6128096 0.0 1027593
11:00+3˚ese7116665 0.0 1027695
14:00+4˚e7116556 0.0 1026804
17:00+2˚e7117473 0.0 1027776
20:00+2˚e6107386 0.0 1028814
2 december, wed
wed223:00+1˚e61076100 0.0 1028631
02:00e71077100 0.0 1028639
05:00−1˚e7118796 0.1 1028601
08:00−1˚e7128796 0.3 1028559
11:00+1˚ese699097 0.1 1028548
14:00+1˚e6108298 0.1 1027576
17:00+1˚e6117899 0.0 1028647
20:00+1˚ese6107899 0.0 1028611
3 december, thu
thu323:00+1˚ese71177100 0.0 1029545
02:00ese61179100 0.0 1029473
05:00ese6108299 0.0 1028535
08:00ese61086100 0.1 1029500
11:00ese61081100 0.0 1029562
14:00ese6108199 0.1 1028544
17:00+1˚ese61082100 0.0 1028517
20:00ese61081100 0.1 1028532